Location: Unspecified
(0.0000°N, 0.0000°E)
Time: 07:50:15
(UTC+00:00)

Vanguard 2 Rocket - Pass Details

Date: 10 October 2022
Orbit: 555 x 3321 km, 32.9° (Epoch: 06 December)

Event Time Altitude Azimuth Distance (km) Brightness Sun altitude
Rises 04:00:23 0° 316° (NW) 3,946 - -26.5°
Reaches altitude 10° 04:03:52 10° 324° (NW) 2,605 - -25.6°
Exits shadow 04:07:36 29° 355° (N) 1,341 7.6 -24.7°
Maximum altitude 04:09:04 35° 29° (NNE) 1,104 7.4 -24.3°
Drops below altitude 10° 04:12:54 10° 97° (E) 1,899 9.7 -23.4°
Sets 04:15:04 0° 107° (ESE) 2,731 10.8 -22.8°
